TimeEDT,TemperatureF,Dew PointF,Humidity,Sea Level PressureIn,VisibilityMPH,Wind Direction,Wind SpeedMPH,Gust SpeedMPH,PrecipitationIn,Events,Conditions,WindDirDegrees,DateUTC
12:53 AM,64.9,63.0,93,30.01,10.0,Calm,Calm,-,N/A,,Clear,0,2013-06-01 04:53:00
1:53 AM,64.0,62.1,93,30.00,10.0,Calm,Calm,-,N/A,,Clear,0,2013-06-01 05:53:00
2:53 AM,63.0,62.1,97,30.00,9.0,Calm,Calm,-,N/A,,Clear,0,2013-06-01 06:53:00
3:53 AM,62.1,61.0,96,30.00,8.0,Calm,Calm,-,N/A,,Clear,0,2013-06-01 07:53:00
4:53 AM,62.1,61.0,96,29.99,9.0,Calm,Calm,-,N/A,,Clear,0,2013-06-01 08:53:00
5:53 AM,60.1,59.0,96,30.00,8.0,Calm,Calm,-,N/A,,Clear,0,2013-06-01 09:53:00
6:53 AM,64.9,63.0,93,30.00,10.0,Calm,Calm,-,N/A,,Clear,0,2013-06-01 10:53:00
7:53 AM,73.0,66.9,81,30.01,10.0,Calm,Calm,-,N/A,,Clear,0,2013-06-01 11:53:00
8:53 AM,78.1,69.1,74,30.01,10.0,South,4.6,-,N/A,,Clear,170,2013-06-01 12:53:00
9:53 AM,81.0,70.0,69,29.99,10.0,Variable,3.5,-,N/A,,Clear,0,2013-06-01 13:53:00
10:53 AM,82.9,70.0,65,29.97,10.0,Variable,5.8,-,N/A,,Clear,0,2013-06-01 14:53:00
11:53 AM,84.9,71.1,63,29.97,10.0,South,5.8,-,N/A,,Clear,190,2013-06-01 15:53:00
12:53 PM,87.1,70.0,57,29.96,10.0,South,9.2,18.4,N/A,,Clear,180,2013-06-01 16:53:00
1:53 PM,87.1,68.0,53,29.94,10.0,SSW,9.2,-,N/A,,Clear,210,2013-06-01 17:53:00
2:53 PM,88.0,69.1,53,29.92,10.0,South,6.9,-,N/A,,Clear,180,2013-06-01 18:53:00
3:53 PM,89.1,69.1,52,29.91,10.0,Variable,5.8,-,N/A,,Clear,0,2013-06-01 19:53:00
4:53 PM,89.1,66.9,48,29.90,10.0,South,9.2,-,N/A,,Clear,180,2013-06-01 20:53:00
5:53 PM,87.1,64.9,48,29.89,10.0,South,3.5,-,N/A,,Clear,180,2013-06-01 21:53:00
6:53 PM,87.1,64.0,46,29.88,10.0,Variable,4.6,-,N/A,,Clear,0,2013-06-01 22:53:00
7:53 PM,82.9,64.9,54,29.89,10.0,Variable,3.5,-,N/A,,Clear,0,2013-06-01 23:53:00
8:53 PM,79.0,66.0,64,29.89,10.0,Calm,Calm,-,N/A,,Clear,0,2013-06-02 00:53:00
9:53 PM,73.9,66.9,79,29.90,10.0,Calm,Calm,-,N/A,,Clear,0,2013-06-02 01:53:00
10:53 PM,72.0,68.0,87,29.90,10.0,Calm,Calm,-,N/A,,Clear,0,2013-06-02 02:53:00
11:53 PM,71.1,66.9,87,29.90,10.0,Calm,Calm,-,N/A,,Clear,0,2013-06-02 03:53:00